Location: Unspecified
(48.8656°N, 0.0000°E)
Time: 22:20:28
(UTC+00:00)

SR - Pass Details

Date: 02 July 2019
Orbit: 580 x 876 km, 66.7° (Epoch: 22 July)

Event Time Altitude Azimuth Distance (km) Brightness Sun altitude
Rises 01:39:39 0° 216° (SW) 2,787 - -15.0°
Reaches altitude 10° 01:41:50 10° 217° (SW) 1,896 - -14.8°
Exits shadow 01:43:37 25° 219° (SW) 1,203 ? -14.7°
Maximum altitude 01:46:04 84° 305° (NW) 603 ? -14.5°
Drops below altitude 10° 01:50:30 10° 35° (NE) 1,985 ? -14.2°
Sets 01:52:50 0° 36° (NE) 2,932 ? -14.1°
